| time (UTC) | temp C | wind direction | speed KPH | gust KPH | rain 1hr cm | rain 24hr cm | rain mn cm | humidity % | barometer mb |
| 20260510175012 | 18 | 278 | 1.6 | 1.6 | 0.00 | 0.00 | 0.00 | 45 | 1006.5 |
| 20260510174510 | 18 | 132 | 1.6 | 3.2 | 0.00 | 0.00 | 0.00 | 46 | 1006.6 |
| 20260510174007 | 18 | 200 | 3.2 | 3.2 | 0.00 | 0.00 | 0.00 | 49 | 1006.5 |
| 20260510173502 | 18 | 343 | 1.6 | 1.6 | 0.00 | 0.00 | 0.00 | 52 | 1006.9 |
| 20260510172959 | 19 | 23 | 3.2 | 6.4 | 0.00 | 0.00 | 0.00 | 49 | 1006.8 |
| 20260510172455 | 18 | 358 | 1.6 | 1.6 | 0.00 | 0.00 | 0.00 | 50 | 1006.6 |
| 20260510171951 | 18 | 111 | 0.0 | 1.6 | 0.00 | 0.00 | 0.00 | 51 | 1007.0 |
| 20260510171449 | 18 | 9 | 0.0 | 1.6 | 0.00 | 0.00 | 0.00 | 50 | 1006.7 |
| 20260510170945 | 18 | 116 | 3.2 | 4.8 | 0.00 | 0.00 | 0.00 | 52 | 1006.8 |
| 20260510170442 | 17 | 116 | 0.0 | 1.6 | 0.00 | 0.00 | 0.00 | 57 | 1006.7 |
| 20260510165938 | 18 | 30 | 6.4 | 9.7 | 0.00 | 0.00 | 0.00 | 49 | 1006.8 |
| 20260510165434 | 18 | 215 | 1.6 | 3.2 | 0.00 | 0.00 | 0.00 | 48 | 1007.0 |
| 20260510164931 | 17 | 203 | 3.2 | 4.8 | 0.00 | 0.00 | 0.00 | 48 | 1006.8 |
| 20260510164429 | 18 | 107 | 3.2 | 4.8 | 0.00 | 0.00 | 0.00 | 48 | 1007.0 |
| 20260510163928 | 18 | 279 | 3.2 | 3.2 | 0.00 | 0.00 | 0.00 | 48 | 1006.8 |
| 20260510163425 | 18 | 286 | 1.6 | 4.8 | 0.00 | 0.00 | 0.00 | 47 | 1007.0 |
| 20260510162919 | 17 | 72 | 3.2 | 4.8 | 0.00 | 0.00 | 0.00 | 50 | 1006.9 |
| 20260510162417 | 17 | 247 | 1.6 | 3.2 | 0.00 | 0.00 | 0.00 | 52 | 1006.9 |
| 20260510161913 | 18 | 79 | 6.4 | 11.3 | 0.00 | 0.00 | 0.00 | 47 | 1007.1 |
| 20260510161409 | 18 | 102 | 4.8 | 6.4 | 0.00 | 0.00 | 0.00 | 48 | 1006.9 |
| 20260510160906 | 18 | 87 | 1.6 | 1.6 | 0.00 | 0.00 | 0.00 | 50 | 1006.9 |
| 20260510160403 | 18 | 258 | 1.6 | 1.6 | 0.00 | 0.00 | 0.00 | 51 | 1006.6 |
| 20260510155901 | 17 | 290 | 3.2 | 3.2 | 0.00 | 0.00 | 0.00 | 48 | 1006.9 |
| 20260510155359 | 18 | 54 | 1.6 | 4.8 | 0.00 | 0.00 | 0.00 | 47 | 1006.9 |
| 20260510154854 | 17 | 279 | 0.0 | 1.6 | 0.00 | 0.00 | 0.00 | 47 | 1006.6 |
| 20260510154351 | 17 | 72 | 1.6 | 3.2 | 0.00 | 0.00 | 0.00 | 47 | 1006.5 |
| 20260510153845 | 17 | 282 | 1.6 | 1.6 | 0.00 | 0.00 | 0.00 | 46 | 1006.6 |
| 20260510153341 | 16 | 274 | 0.0 | 1.6 | 0.00 | 0.00 | 0.00 | 54 | 1006.4 |
| 20260510152838 | 17 | 91 | 3.2 | 9.7 | 0.00 | 0.00 | 0.00 | 53 | 1006.4 |
| 20260510152335 | 17 | 271 | 1.6 | 1.6 | 0.00 | 0.00 | 0.00 | 52 | 1006.3 |
| 20260510151831 | 17 | 97 | 0.0 | 1.6 | 0.00 | 0.00 | 0.00 | 53 | 1006.2 |
| 20260510151329 | 17 | 311 | 1.6 | 3.2 | 0.00 | 0.00 | 0.00 | 54 | 1006.2 |
| 20260510150825 | 17 | 275 | 1.6 | 1.6 | 0.00 | 0.00 | 0.00 | 55 | 1006.1 |
| 20260510150321 | 16 | 19 | 1.6 | 3.2 | 0.00 | 0.00 | 0.00 | 54 | 1006.2 |
| 20260510145817 | 16 | 336 | 1.6 | 1.6 | 0.00 | 0.00 | 0.00 | 54 | 1006.0 |
| 20260510145314 | 16 | 27 | 0.0 | 1.6 | 0.00 | 0.00 | 0.00 | 55 | 1006.0 |
| 20260510144810 | 16 | 55 | 3.2 | 4.8 | 0.00 | 0.00 | 0.00 | 54 | 1006.0 |
| 20260510144307 | 17 | 32 | 3.2 | 6.4 | 0.00 | 0.00 | 0.00 | 54 | 1005.9 |
| 20260510143807 | 16 | 292 | 0.0 | 0.0 | 0.00 | 0.00 | 0.00 | 55 | 1005.7 |
| 20260510143303 | 16 | 296 | 3.2 | 3.2 | 0.00 | 0.00 | 0.00 | 54 | 1005.7 |
| 20260510142800 | 15 | 51 | 0.0 | 0.0 | 0.00 | 0.00 | 0.00 | 61 | 1005.7 |
| 20260510142256 | 15 | 296 | 1.6 | 1.6 | 0.00 | 0.00 | 0.00 | 55 | 1005.4 |
| 20260510141754 | 15 | 307 | 0.0 | 1.6 | 0.00 | 0.00 | 0.00 | 59 | 1005.4 |
| 20260510141252 | 14 | 254 | 1.6 | 1.6 | 0.00 | 0.00 | 0.00 | 57 | 1005.6 |
| 20260510140749 | 15 | 347 | 1.6 | 1.6 | 0.00 | 0.00 | 0.00 | 57 | 1005.5 |
| 20260510140244 | 16 | 265 | 0.0 | 1.6 | 0.00 | 0.00 | 0.00 | 55 | 1005.3 |
| 20260510135738 | 16 | 306 | 0.0 | 0.0 | 0.00 | 0.00 | 0.00 | 56 | 1005.5 |
| 20260510135234 | 15 | 219 | 3.2 | 3.2 | 0.00 | 0.00 | 0.00 | 58 | 1005.4 |
| 20260510134732 | 14 | 31 | 3.2 | 3.2 | 0.00 | 0.00 | 0.00 | 60 | 1005.6 |
| 20260510134229 | 13 | 58 | 1.6 | 1.6 | 0.00 | 0.00 | 0.00 | 61 | 1005.3 |
| 20260510133725 | 13 | 283 | 1.6 | 1.6 | 0.00 | 0.00 | 0.00 | 62 | 1005.3 |
| 20260510133221 | 13 | 77 | 3.2 | 4.8 | 0.00 | 0.00 | 0.00 | 61 | 1005.3 |
| 20260510132717 | 13 | 144 | 3.2 | 4.8 | 0.00 | 0.00 | 0.00 | 60 | 1005.1 |
| 20260510132214 | 13 | 61 | 3.2 | 4.8 | 0.00 | 0.00 | 0.00 | 63 | 1005.1 |
| 20260510131711 | 13 | 246 | 1.6 | 1.6 | 0.00 | 0.00 | 0.00 | 64 | 1005.0 |
| 20260510131209 | 13 | 244 | 0.0 | 0.0 | 0.00 | 0.00 | 0.00 | 67 | 1004.9 |
| 20260510130705 | 13 | 293 | 0.0 | 1.6 | 0.00 | 0.00 | 0.00 | 66 | 1005.0 |
| 20260510130203 | 12 | 2 | 0.0 | 0.0 | 0.00 | 0.00 | 0.00 | 64 | 1004.9 |
| 20260510125658 | 12 | 330 | 1.6 | 1.6 | 0.00 | 0.00 | 0.00 | 65 | 1005.0 |
| 20260510125154 | 12 | 330 | 1.6 | 1.6 | 0.00 | 0.00 | 0.00 | 68 | 1004.9 |
| 20260510124651 | 12 | 289 | 0.0 | 0.0 | 0.00 | 0.00 | 0.00 | 69 | 1004.8 |
| 20260510124148 | 12 | 107 | 3.2 | 3.2 | 0.00 | 0.00 | 0.00 | 70 | 1004.4 |
| 20260510123643 | 12 | 4 | 0.0 | 1.6 | 0.00 | 0.00 | 0.00 | 69 | 1004.6 |
| 20260510123140 | 12 | 243 | 1.6 | 3.2 | 0.00 | 0.00 | 0.00 | 70 | 1004.4 |
| 20260510122636 | 11 | 48 | 1.6 | 3.2 | 0.00 | 0.00 | 0.00 | 68 | 1004.3 |
| 20260510122132 | 11 | 265 | 0.0 | 0.0 | 0.00 | 0.00 | 0.00 | 69 | 1004.4 |
| 20260510121629 | 11 | 302 | 0.0 | 1.6 | 0.00 | 0.00 | 0.00 | 68 | 1004.4 |
| 20260510121126 | 11 | 301 | 0.0 | 0.0 | 0.00 | 0.00 | 0.00 | 68 | 1004.3 |
| 20260510120624 | 11 | 318 | 1.6 | 1.6 | 0.00 | 0.00 | 0.00 | 68 | 1004.3 |
| 20260510120119 | 11 | 308 | 0.0 | 1.6 | 0.00 | 0.00 | 0.00 | 70 | 1004.1 |
| 20260510115616 | 11 | 291 | 1.6 | 1.6 | 0.00 | 0.00 | 0.00 | 69 | 1004.1 |
| 20260510115114 | 11 | 293 | 0.0 | 0.0 | 0.00 | 0.00 | 0.00 | 72 | 1004.0 |
| 20260510114609 | 11 | 281 | 0.0 | 0.0 | 0.00 | 0.00 | 0.00 | 72 | 1003.8 |
| 20260510114105 | 11 | 306 | 0.0 | 1.6 | 0.00 | 0.00 | 0.00 | 73 | 1003.8 |
| 20260510113600 | 11 | 355 | 0.0 | 0.0 | 0.00 | 0.00 | 0.00 | 76 | 1003.9 |
| 20260510113059 | 11 | 265 | 0.0 | 0.0 | 0.00 | 0.00 | 0.00 | 75 | 1003.9 |
| 20260510112555 | 11 | 284 | 0.0 | 1.6 | 0.00 | 0.00 | 0.00 | 75 | 1003.6 |
| 20260510112051 | 12 | 339 | 0.0 | 1.6 | 0.00 | 0.00 | 0.00 | 73 | 1003.4 |
| 20260510111548 | 12 | 54 | 3.2 | 4.8 | 0.00 | 0.00 | 0.00 | 72 | 1003.5 |
| 20260510111044 | 12 | 290 | 1.6 | 1.6 | 0.00 | 0.00 | 0.00 | 72 | 1003.5 |
| 20260510110540 | 12 | 50 | 3.2 | 3.2 | 0.00 | 0.00 | 0.00 | 72 | 1003.3 |
| 20260510110037 | 12 | 290 | 0.0 | 1.6 | 0.00 | 0.00 | 0.00 | 73 | 1003.4 |
| 20260510105532 | 12 | 296 | 1.6 | 1.6 | 0.00 | 0.00 | 0.00 | 72 | 1003.2 |
| 20260510105027 | 12 | 2 | 3.2 | 3.2 | 0.00 | 0.00 | 0.00 | 72 | 1003.0 |
| 20260510104524 | 12 | 277 | 0.0 | 0.0 | 0.00 | 0.00 | 0.00 | 75 | 1003.0 |
| 20260510104020 | 12 | 270 | 1.6 | 1.6 | 0.00 | 0.00 | 0.00 | 76 | 1002.8 |
| 20260510103518 | 12 | 44 | 1.6 | 1.6 | 0.00 | 0.00 | 0.00 | 77 | 1002.7 |
| 20260510103014 | 12 | 275 | 0.0 | 0.0 | 0.00 | 0.00 | 0.00 | 78 | 1002.5 |
| 20260510102510 | 12 | 292 | 0.0 | 0.0 | 0.00 | 0.00 | 0.00 | 78 | 1002.6 |
| 20260510102006 | 12 | 286 | 1.6 | 3.2 | 0.00 | 0.00 | 0.00 | 77 | 1002.4 |
| 20260510101504 | 12 | 211 | 0.0 | 1.6 | 0.00 | 0.00 | 0.00 | 76 | 1002.2 |
| 20260510101002 | 12 | 326 | 1.6 | 1.6 | 0.00 | 0.00 | 0.00 | 76 | 1002.2 |
| 20260510100458 | 12 | 103 | 1.6 | 3.2 | 0.00 | 0.00 | 0.00 | 77 | 1001.8 |
| 20260510095954 | 12 | 310 | 0.0 | 1.6 | 0.00 | 0.00 | 0.00 | 77 | 1001.8 |
| 20260510095450 | 12 | 324 | 0.0 | 0.0 | 0.00 | 0.00 | 0.00 | 77 | 1001.9 |
| 20260510094949 | 12 | 245 | 1.6 | 1.6 | 0.00 | 0.00 | 0.00 | 76 | 1001.9 |
| 20260510094444 | 12 | 325 | 0.0 | 0.0 | 0.00 | 0.00 | 0.00 | 76 | 1001.9 |
| 20260510093941 | 12 | 282 | 0.0 | 1.6 | 0.00 | 0.00 | 0.00 | 75 | 1001.7 |
| 20260510093435 | 12 | 312 | 0.0 | 0.0 | 0.00 | 0.00 | 0.00 | 78 | 1001.6 |
| 20260510092927 | 13 | 299 | 0.0 | 0.0 | 0.00 | 0.00 | 0.00 | 78 | 1001.7 |
| 20260510092424 | 13 | 287 | 1.6 | 1.6 | 0.00 | 0.00 | 0.00 | 78 | 1001.3 |
| 20260510091918 | 13 | 270 | 0.0 | 1.6 | 0.00 | 0.00 | 0.00 | 79 | 1001.7 |
| 20260510091416 | 13 | 252 | 0.0 | 1.6 | 0.00 | 0.00 | 0.00 | 79 | 1001.2 |
| 20260510090913 | 13 | 273 | 0.0 | 0.0 | 0.00 | 0.00 | 0.00 | 79 | 1001.1 |
| 20260510090409 | 13 | 294 | 0.0 | 1.6 | 0.00 | 0.00 | 0.00 | 79 | 1001.1 |
| 20260510085905 | 13 | 301 | 3.2 | 4.8 | 0.00 | 0.00 | 0.00 | 78 | 1001.0 |
| 20260510085400 | 13 | 279 | 1.6 | 1.6 | 0.00 | 0.00 | 0.00 | 78 | 1000.9 |
| 20260510084855 | 13 | 272 | 1.6 | 3.2 | 0.00 | 0.00 | 0.00 | 79 | 1000.9 |
| 20260510084354 | 13 | 278 | 0.0 | 0.0 | 0.00 | 0.00 | 0.00 | 79 | 1000.5 |
| 20260510083850 | 13 | 292 | 0.0 | 0.0 | 0.00 | 0.00 | 0.00 | 80 | 1000.3 |
| 20260510083346 | 14 | 303 | 3.2 | 3.2 | 0.00 | 0.00 | 0.00 | 79 | 1000.1 |
| 20260510082842 | 14 | 282 | 1.6 | 1.6 | 0.00 | 0.00 | 0.00 | 79 | 1000.4 |
| 20260510082339 | 13 | 280 | 1.6 | 1.6 | 0.00 | 0.00 | 0.00 | 78 | 1000.1 |
| 20260510081832 | 13 | 249 | 1.6 | 3.2 | 0.00 | 0.00 | 0.00 | 79 | 1000.0 |
| 20260510081329 | 13 | 277 | 1.6 | 1.6 | 0.00 | 0.00 | 0.00 | 78 | 1000.3 |
| 20260510080825 | 14 | 319 | 1.6 | 1.6 | 0.00 | 0.00 | 0.00 | 77 | 999.9 |
| 20260510080319 | 13 | 274 | 1.6 | 1.6 | 0.00 | 0.00 | 0.00 | 77 | 1000.0 |
| 20260510075817 | 13 | 281 | 0.0 | 1.6 | 0.00 | 0.00 | 0.00 | 78 | 999.8 |
| 20260510075314 | 13 | 277 | 0.0 | 1.6 | 0.00 | 0.00 | 0.00 | 80 | 999.8 |
| 20260510074810 | 13 | 282 | 0.0 | 0.0 | 0.00 | 0.00 | 0.00 | 78 | 1000.0 |
| 20260510074307 | 14 | 274 | 1.6 | 1.6 | 0.00 | 0.00 | 0.00 | 78 | 1000.1 |
| 20260510073758 | 14 | 280 | 1.6 | 1.6 | 0.00 | 0.00 | 0.00 | 78 | 1000.3 |
| 20260510073254 | 14 | 282 | 3.2 | 3.2 | 0.00 | 0.00 | 0.00 | 78 | 1000.4 |
| 20260510072750 | 14 | 252 | 3.2 | 4.8 | 0.00 | 0.00 | 0.00 | 79 | 1000.3 |
| 20260510072247 | 14 | 284 | 1.6 | 3.2 | 0.00 | 0.00 | 0.00 | 78 | 1000.3 |
| 20260510071743 | 14 | 280 | 1.6 | 1.6 | 0.00 | 0.00 | 0.00 | 79 | 1000.0 |
| 20260510071240 | 15 | 284 | 0.0 | 0.0 | 0.00 | 0.00 | 0.00 | 76 | 999.8 |
| 20260510070738 | 15 | 272 | 0.0 | 0.0 | 0.00 | 0.00 | 0.00 | 75 | 1000.0 |
| 20260510070234 | 15 | 278 | 1.6 | 1.6 | 0.00 | 0.00 | 0.00 | 75 | 1000.1 |
| 20260510065729 | 15 | 283 | 1.6 | 1.6 | 0.00 | 0.00 | 0.00 | 74 | 1000.4 |
| 20260510065226 | 15 | 253 | 1.6 | 3.2 | 0.00 | 0.00 | 0.00 | 74 | 1000.0 |
| 20260510064722 | 15 | 270 | 1.6 | 1.6 | 0.00 | 0.00 | 0.00 | 74 | 1000.0 |
| 20260510064220 | 16 | 273 | 1.6 | 1.6 | 0.00 | 0.00 | 0.00 | 73 | 1000.1 |
| 20260510063717 | 16 | 246 | 3.2 | 3.2 | 0.00 | 0.00 | 0.00 | 72 | 999.9 |
| 20260510063213 | 16 | 280 | 0.0 | 1.6 | 0.00 | 0.00 | 0.00 | 71 | 999.9 |
| 20260510062710 | 16 | 284 | 4.8 | 9.7 | 0.00 | 0.00 | 0.00 | 70 | 1000.1 |
| 20260510062206 | 16 | 244 | 4.8 | 4.8 | 0.00 | 0.00 | 0.00 | 71 | 1000.3 |
| 20260510061701 | 16 | 296 | 4.8 | 6.4 | 0.00 | 0.00 | 0.00 | 70 | 1000.1 |
| 20260510061158 | 16 | 306 | 3.2 | 3.2 | 0.00 | 0.00 | 0.00 | 73 | 1000.3 |
| 20260510060654 | 16 | 301 | 8.0 | 12.9 | 0.00 | 0.00 | 0.00 | 75 | 1000.4 |
| 20260510060151 | 16 | 275 | 3.2 | 4.8 | 0.00 | 0.00 | 0.00 | 77 | 1000.5 |
| 20260510055647 | 16 | 261 | 4.8 | 4.8 | 0.00 | 0.00 | 0.00 | 77 | 1000.5 |
| 20260510055145 | 16 | 271 | 3.2 | 4.8 | 0.00 | 0.00 | 0.00 | 77 | 1000.5 |
| 20260510054641 | 16 | 282 | 4.8 | 4.8 | 0.00 | 0.00 | 0.00 | 76 | 1000.5 |
| 20260510054137 | 15 | 290 | 3.2 | 4.8 | 0.00 | 0.00 | 0.00 | 77 | 1000.5 |
| 20260510053636 | 15 | 279 | 1.6 | 3.2 | 0.00 | 0.00 | 0.00 | 77 | 1000.5 |
| 20260510053133 | 15 | 255 | 1.6 | 1.6 | 0.00 | 0.00 | 0.00 | 77 | 1000.3 |
| 20260510052629 | 15 | 275 | 1.6 | 1.6 | 0.00 | 0.00 | 0.00 | 77 | 1000.1 |
| 20260510052125 | 15 | 293 | 1.6 | 3.2 | 0.00 | 0.00 | 0.00 | 78 | 1000.3 |
| 20260510051620 | 15 | 271 | 1.6 | 1.6 | 0.00 | 0.00 | 0.00 | 78 | 1000.1 |
| 20260510051118 | 15 | 279 | 0.0 | 0.0 | 0.00 | 0.00 | 0.00 | 78 | 1000.1 |
| 20260510050615 | 15 | 278 | 0.0 | 0.0 | 0.00 | 0.00 | 0.00 | 77 | 999.9 |
| 20260510050112 | 15 | 274 | 0.0 | 1.6 | 0.00 | 0.00 | 0.00 | 77 | 999.9 |
| 20260510045609 | 15 | 278 | 1.6 | 1.6 | 0.00 | 0.00 | 0.00 | 77 | 1000.1 |
| 20260510045105 | 15 | 293 | 1.6 | 1.6 | 0.00 | 0.00 | 0.00 | 77 | 1000.0 |
| 20260510044602 | 15 | 290 | 3.2 | 3.2 | 0.00 | 0.00 | 0.00 | 76 | 999.7 |
| 20260510044059 | 15 | 287 | 3.2 | 4.8 | 0.00 | 0.00 | 0.00 | 77 | 999.5 |
| 20260510043555 | 15 | 282 | 1.6 | 3.2 | 0.00 | 0.00 | 0.00 | 77 | 999.7 |
| 20260510043051 | 15 | 275 | 1.6 | 1.6 | 0.00 | 0.00 | 0.00 | 77 | 999.6 |
| 20260510042550 | 15 | 288 | 1.6 | 1.6 | 0.00 | 0.00 | 0.00 | 77 | 999.8 |
| 20260510042045 | 15 | 278 | 1.6 | 1.6 | 0.00 | 0.00 | 0.00 | 76 | 999.6 |
| 20260510041542 | 15 | 284 | 3.2 | 3.2 | 0.00 | 0.00 | 0.00 | 76 | 999.6 |
| 20260510041040 | 15 | 290 | 1.6 | 3.2 | 0.00 | 0.00 | 0.00 | 75 | 999.6 |
| 20260510040536 | 15 | 283 | 1.6 | 3.2 | 0.00 | 0.00 | 0.00 | 75 | 999.5 |
| 20260510040032 | 15 | 288 | 0.0 | 0.0 | 0.00 | 0.76 | 0.76 | 75 | 999.5 |
| 20260510035529 | 15 | 280 | 1.6 | 1.6 | 0.00 | 0.76 | 0.76 | 75 | 999.3 |
| 20260510035028 | 15 | 279 | 1.6 | 3.2 | 0.00 | 0.76 | 0.76 | 74 | 999.5 |
| 20260510034527 | 16 | 292 | 1.6 | 1.6 | 0.00 | 0.76 | 0.76 | 74 | 999.3 |
| 20260510034023 | 16 | 323 | 1.6 | 3.2 | 0.00 | 0.76 | 0.76 | 73 | 999.4 |
| 20260510033514 | 16 | 297 | 3.2 | 4.8 | 0.00 | 0.76 | 0.76 | 73 | 999.3 |
| 20260510033012 | 16 | 253 | 3.2 | 3.2 | 0.00 | 0.76 | 0.76 | 73 | 999.3 |
| 20260510032508 | 16 | 277 | 1.6 | 1.6 | 0.00 | 0.76 | 0.76 | 73 | 999.3 |
| 20260510032003 | 16 | 281 | 1.6 | 1.6 | 0.00 | 0.76 | 0.76 | 73 | 999.2 |
| 20260510031458 | 16 | 276 | 0.0 | 1.6 | 0.00 | 0.76 | 0.76 | 73 | 999.2 |
| 20260510030954 | 16 | 283 | 1.6 | 1.6 | 0.00 | 0.76 | 0.76 | 72 | 999.1 |
| 20260510030450 | 16 | 281 | 1.6 | 1.6 | 0.00 | 0.76 | 0.76 | 72 | 999.1 |
| 20260510025947 | 16 | 279 | 1.6 | 1.6 | 0.00 | 0.76 | 0.76 | 71 | 999.1 |
| 20260510025445 | 16 | 285 | 1.6 | 3.2 | 0.00 | 0.76 | 0.76 | 70 | 999.1 |
| 20260510024942 | 16 | 277 | 1.6 | 1.6 | 0.00 | 0.76 | 0.76 | 70 | 999.2 |
| 20260510024438 | 17 | 276 | 1.6 | 1.6 | 0.00 | 0.76 | 0.76 | 69 | 999.3 |
| 20260510023934 | 16 | 282 | 1.6 | 1.6 | 0.00 | 0.76 | 0.76 | 69 | 999.1 |
| 20260510023431 | 16 | 277 | 0.0 | 0.0 | 0.00 | 0.76 | 0.76 | 69 | 999.1 |
| 20260510022928 | 17 | 282 | 1.6 | 1.6 | 0.00 | 0.76 | 0.76 | 69 | 998.9 |
| 20260510022427 | 17 | 281 | 1.6 | 1.6 | 0.00 | 0.76 | 0.76 | 68 | 999.0 |
| 20260510021926 | 17 | 275 | 1.6 | 3.2 | 0.00 | 0.76 | 0.76 | 68 | 998.9 |
| 20260510021424 | 17 | 281 | 1.6 | 1.6 | 0.00 | 0.76 | 0.76 | 68 | 998.9 |
| 20260510020921 | 17 | 282 | 1.6 | 1.6 | 0.00 | 0.76 | 0.76 | 67 | 998.9 |
| 20260510020415 | 17 | 276 | 0.0 | 0.0 | 0.00 | 0.76 | 0.76 | 66 | 998.8 |
| 20260510015911 | 17 | 288 | 1.6 | 1.6 | 0.00 | 0.76 | 0.76 | 65 | 998.7 |
| 20260510015407 | 17 | 277 | 3.2 | 4.8 | 0.00 | 0.76 | 0.76 | 65 | 998.6 |
| 20260510014857 | 17 | 289 | 1.6 | 3.2 | 0.00 | 0.76 | 0.76 | 65 | 998.5 |
| 20260510014356 | 18 | 279 | 3.2 | 3.2 | 0.00 | 0.76 | 0.76 | 64 | 998.6 |
| 20260510013851 | 18 | 292 | 3.2 | 4.8 | 0.00 | 0.76 | 0.76 | 64 | 998.2 |
| 20260510013347 | 18 | 291 | 1.6 | 1.6 | 0.00 | 0.76 | 0.76 | 63 | 998.2 |
| 20260510012841 | 18 | 293 | 1.6 | 1.6 | 0.00 | 0.76 | 0.76 | 63 | 998.3 |
| 20260510012341 | 18 | 280 | 3.2 | 3.2 | 0.00 | 0.76 | 0.76 | 62 | 998.2 |
| 20260510011836 | 18 | 283 | 1.6 | 1.6 | 0.00 | 0.76 | 0.76 | 63 | 997.9 |
| 20260510011331 | 18 | 280 | 3.2 | 3.2 | 0.00 | 0.76 | 0.76 | 62 | 997.9 |
| 20260510010828 | 18 | 280 | 3.2 | 3.2 | 0.00 | 0.76 | 0.76 | 62 | 998.1 |
| 20260510010326 | 18 | 286 | 1.6 | 1.6 | 0.00 | 0.76 | 0.76 | 61 | 998.0 |
| 20260510005822 | 18 | 270 | 3.2 | 3.2 | 0.00 | 0.76 | 0.76 | 61 | 998.0 |
| 20260510005319 | 18 | 282 | 1.6 | 1.6 | 0.00 | 0.76 | 0.76 | 60 | 998.0 |
| 20260510004816 | 19 | 299 | 3.2 | 4.8 | 0.00 | 0.76 | 0.76 | 59 | 997.9 |
| 20260510004314 | 19 | 295 | 4.8 | 4.8 | 0.00 | 0.76 | 0.76 | 59 | 997.7 |
| 20260510003811 | 19 | 221 | 4.8 | 4.8 | 0.00 | 0.76 | 0.76 | 59 | 997.9 |
| 20260510003308 | 19 | 289 | 3.2 | 4.8 | 0.00 | 0.76 | 0.76 | 59 | 997.6 |
| 20260510002806 | 19 | 277 | 6.4 | 6.4 | 0.00 | 0.76 | 0.76 | 58 | 997.6 |
| 20260510002306 | 20 | 278 | 3.2 | 3.2 | 0.00 | 0.76 | 0.76 | 58 | 997.5 |
| 20260510001800 | 20 | 307 | 6.4 | 11.3 | 0.00 | 0.76 | 0.76 | 58 | 997.4 |
| 20260510001259 | 20 | 280 | 3.2 | 3.2 | 0.00 | 0.76 | 0.76 | 57 | 997.3 |
| 20260510000754 | 20 | 305 | 3.2 | 4.8 | 0.00 | 0.76 | 0.76 | 56 | 997.4 |
| 20260510000252 | 20 | 298 | 3.2 | 4.8 | 0.00 | 0.76 | 0.76 | 57 | 997.1 |
| 20260509235749 | 20 | 285 | 3.2 | 4.8 | 0.00 | 0.76 | 0.76 | 55 | 997.3 |
| 20260509235245 | 20 | 286 | 1.6 | 3.2 | 0.00 | 0.76 | 0.76 | 55 | 997.3 |
| 20260509234741 | 20 | 249 | 6.4 | 9.7 | 0.00 | 0.76 | 0.76 | 54 | 997.2 |
| 20260509234238 | 20 | 218 | 8.0 | 11.3 | 0.00 | 0.76 | 0.76 | 53 | 997.1 |
| 20260509233737 | 20 | 256 | 8.0 | 12.9 | 0.00 | 0.76 | 0.76 | 54 | 997.2 |
| 20260509233234 | 21 | 267 | 4.8 | 6.4 | 0.00 | 0.76 | 0.76 | 54 | 997.1 |
| 20260509232729 | 21 | 268 | 4.8 | 4.8 | 0.00 | 0.76 | 0.76 | 54 | 997.1 |
| 20260509232227 | 21 | 282 | 1.6 | 3.2 | 0.00 | 0.76 | 0.76 | 53 | 997.1 |
| 20260509231723 | 21 | 266 | 3.2 | 3.2 | 0.00 | 0.76 | 0.76 | 54 | 997.0 |
| 20260509231220 | 21 | 282 | 6.4 | 6.4 | 0.00 | 0.76 | 0.76 | 53 | 997.0 |
| 20260509230718 | 21 | 223 | 3.2 | 6.4 | 0.00 | 0.76 | 0.76 | 53 | 997.1 |
| 20260509230214 | 21 | 318 | 6.4 | 9.7 | 0.00 | 0.76 | 0.76 | 54 | 996.9 |
| 20260509225710 | 21 | 293 | 8.0 | 11.3 | 0.00 | 0.76 | 0.76 | 53 | 996.8 |
| 20260509225206 | 21 | 329 | 11.3 | 14.5 | 0.00 | 0.76 | 0.76 | 53 | 997.1 |
| 20260509224657 | 21 | 292 | 4.8 | 4.8 | 0.00 | 0.76 | 0.76 | 53 | 996.9 |
| 20260509224154 | 22 | 273 | 8.0 | 9.7 | 0.00 | 0.76 | 0.76 | 53 | 997.0 |
| 20260509223650 | 22 | 261 | 9.7 | 11.3 | 0.00 | 0.76 | 0.76 | 54 | 996.9 |
| 20260509223147 | 22 | 262 | 4.8 | 4.8 | 0.00 | 0.76 | 0.76 | 53 | 996.9 |
| 20260509222644 | 22 | 308 | 6.4 | 9.7 | 0.00 | 0.76 | 0.76 | 52 | 997.0 |
| 20260509222139 | 22 | 268 | 1.6 | 3.2 | 0.00 | 0.76 | 0.76 | 54 | 996.9 |
| 20260509221636 | 22 | 330 | 6.4 | 9.7 | 0.00 | 0.76 | 0.76 | 54 | 996.9 |
| 20260509221131 | 22 | 304 | 3.2 | 4.8 | 0.00 | 0.76 | 0.76 | 55 | 996.9 |
| 20260509220628 | 22 | 290 | 9.7 | 14.5 | 0.00 | 0.76 | 0.76 | 54 | 997.0 |
| 20260509220124 | 22 | 298 | 4.8 | 4.8 | 0.00 | 0.76 | 0.76 | 54 | 997.1 |
| 20260509215621 | 22 | 269 | 4.8 | 11.3 | 0.00 | 0.76 | 0.76 | 54 | 997.1 |
| 20260509215117 | 22 | 264 | 9.7 | 11.3 | 0.00 | 0.76 | 0.76 | 55 | 997.1 |
| 20260509214614 | 22 | 283 | 3.2 | 4.8 | 0.00 | 0.76 | 0.76 | 55 | 997.2 |
| 20260509214111 | 22 | 337 | 4.8 | 4.8 | 0.00 | 0.76 | 0.76 | 55 | 997.1 |
| 20260509213607 | 22 | 312 | 4.8 | 4.8 | 0.00 | 0.76 | 0.76 | 57 | 997.1 |
| 20260509213104 | 22 | 225 | 6.4 | 9.7 | 0.00 | 0.76 | 0.76 | 55 | 997.1 |
| 20260509212602 | 22 | 296 | 4.8 | 4.8 | 0.00 | 0.76 | 0.76 | 57 | 997.1 |
| 20260509212058 | 22 | 269 | 4.8 | 6.4 | 0.00 | 0.76 | 0.76 | 56 | 997.3 |
| 20260509211554 | 21 | 252 | 9.7 | 11.3 | 0.00 | 0.76 | 0.76 | 56 | 997.2 |
| 20260509211051 | 21 | 271 | 4.8 | 6.4 | 0.00 | 0.76 | 0.76 | 56 | 997.2 |
| 20260509210547 | 21 | 295 | 4.8 | 6.4 | 0.00 | 0.76 | 0.76 | 57 | 997.2 |
| 20260509210044 | 22 | 267 | 0.0 | 1.6 | 0.00 | 0.76 | 0.76 | 56 | 997.3 |
| 20260509205538 | 22 | 301 | 3.2 | 4.8 | 0.00 | 0.76 | 0.76 | 53 | 997.3 |
| 20260509205034 | 21 | 292 | 3.2 | 3.2 | 0.00 | 0.76 | 0.76 | 57 | 997.2 |
| 20260509204530 | 22 | 278 | 6.4 | 6.4 | 0.00 | 0.76 | 0.76 | 56 | 997.4 |
| 20260509204027 | 22 | 9 | 6.4 | 9.7 | 0.00 | 0.76 | 0.76 | 57 | 997.4 |
| 20260509203522 | 22 | 286 | 4.8 | 6.4 | 0.00 | 0.76 | 0.76 | 57 | 997.4 |
| 20260509203021 | 21 | 160 | 4.8 | 4.8 | 0.00 | 0.76 | 0.76 | 57 | 997.3 |
| 20260509202515 | 21 | 287 | 1.6 | 3.2 | 0.00 | 0.76 | 0.76 | 59 | 997.4 |
| 20260509202011 | 22 | 282 | 9.7 | 12.9 | 0.00 | 0.76 | 0.76 | 55 | 997.5 |
| 20260509201506 | 22 | 279 | 3.2 | 3.2 | 0.00 | 0.76 | 0.76 | 60 | 997.4 |
| 20260509201004 | 21 | 271 | 1.6 | 3.2 | 0.00 | 0.76 | 0.76 | 60 | 997.5 |
| 20260509200504 | 20 | 311 | 9.7 | 14.5 | 0.00 | 0.76 | 0.76 | 58 | 997.7 |
| 20260509200000 | 21 | 277 | 9.7 | 12.9 | 0.00 | 0.76 | 0.76 | 56 | 997.7 |
| 20260509195455 | 21 | 296 | 8.0 | 12.9 | 0.00 | 0.76 | 0.76 | 56 | 997.9 |
| 20260509194950 | 21 | 296 | 3.2 | 4.8 | 0.00 | 0.76 | 0.76 | 60 | 997.8 |
| 20260509194446 | 21 | 240 | 8.0 | 11.3 | 0.00 | 0.76 | 0.76 | 58 | 997.9 |
| 20260509193943 | 21 | 239 | 9.7 | 11.3 | 0.00 | 0.76 | 0.76 | 59 | 997.9 |
| 20260509193443 | 21 | 269 | 4.8 | 9.7 | 0.00 | 0.76 | 0.76 | 61 | 998.0 |
| 20260509192939 | 21 | 275 | 8.0 | 11.3 | 0.00 | 0.76 | 0.76 | 58 | 998.1 |
| 20260509192436 | 21 | 268 | 4.8 | 4.8 | 0.00 | 0.76 | 0.76 | 63 | 997.8 |
| 20260509191931 | 20 | 274 | 6.4 | 9.7 | 0.00 | 0.76 | 0.76 | 60 | 997.9 |
| 20260509191426 | 20 | 86 | 9.7 | 14.5 | 0.00 | 0.76 | 0.76 | 62 | 998.2 |
| 20260509190922 | 20 | 16 | 6.4 | 6.4 | 0.00 | 0.76 | 0.76 | 64 | 998.2 |
| 20260509190420 | 20 | 263 | 6.4 | 6.4 | 0.00 | 0.76 | 0.76 | 59 | 998.3 |
| 20260509185918 | 20 | 40 | 4.8 | 9.7 | 0.00 | 0.76 | 0.76 | 63 | 998.3 |
| 20260509185415 | 20 | 290 | 3.2 | 4.8 | 0.00 | 0.76 | 0.76 | 68 | 998.3 |
| 20260509184911 | 19 | 274 | 1.6 | 3.2 | 0.00 | 0.76 | 0.76 | 67 | 998.3 |
| 20260509184409 | 20 | 260 | 6.4 | 9.7 | 0.00 | 0.76 | 0.76 | 66 | 998.2 |
| 20260509183905 | 20 | 288 | 3.2 | 4.8 | 0.00 | 0.76 | 0.76 | 68 | 998.2 |
| 20260509183400 | 20 | 54 | 6.4 | 9.7 | 0.00 | 0.76 | 0.76 | 66 | 998.3 |
| 20260509182856 | 20 | 284 | 3.2 | 4.8 | 0.00 | 0.76 | 0.76 | 67 | 998.3 |
| 20260509182353 | 18 | 291 | 3.2 | 3.2 | 0.00 | 0.76 | 0.76 | 70 | 998.3 |
| 20260509181850 | 19 | 287 | 1.6 | 3.2 | 0.00 | 0.76 | 0.76 | 68 | 998.5 |
| 20260509181348 | 20 | 357 | 8.0 | 12.9 | 0.00 | 0.76 | 0.76 | 68 | 998.2 |
| 20260509180845 | 20 | 239 | 8.0 | 11.3 | 0.00 | 0.76 | 0.76 | 67 | 998.5 |
| 20260509180341 | 18 | 310 | 6.4 | 9.7 | 0.00 | 0.76 | 0.76 | 71 | 998.6 |
| 20260509175838 | 19 | 291 | 4.8 | 4.8 | 0.00 | 0.76 | 0.76 | 70 | 998.6 |
| 20260509175334 | 18 | 322 | 8.0 | 14.5 | 0.00 | 0.76 | 0.76 | 70 | 998.8 |